Starlink 3871

operational
NORAD ID: 52496 Int'l Des: 2022-049 Owner: SPXS Country: US Constellation: starlink
LEOCIRCULAR

About Starlink 3871

Description loading...

Live Position

Loading 3D Globe...

Upcoming Passes

Altitude History

Altitude vs Time

uPlot chart will show altitude changes over time

Two-Line Element Set

1 52496U 22049AX 25306.13400950 .00001428 00000-0 10778-3 0 9992
2 52496 53.2179 256.7405 0001334 86.0020 274.1124 15.08844233193205
Epoch: Nov 2, 2025 • Age: 30 hours

Current Status

Altitude 555.7 km
Velocity 7.58 km/s
Sub-Earth Point -44.84°S, 57.46°W
Launch Date May 6, 2022
Age 3.4 years
Type internet

Technical Details

Classification Payload
Mass 297.00 kg
Dry Mass 220.00 kg
Total Mass 297.00 kg
Length 0.20 m
Diameter 2.80 m
Span 9.00 m
Shape Box + pan
Manufacturer SPXS
Bus Type Starlink
Phase Status In Orbit
Owner/State SPXS/US

Large Constellations

Loading constellations...